Rochelle, IL

12:11 AM CDT on October 23, 2017 (GMT -0500)
Rochelle

Weather History for KRPJ - January, 2012

Change the Weather History Date:

Tuesday, January 17, 2012

  Actual Average (KRFD) Record (KRFD)
Temperature  
Mean Temperature 25 °F -  
Max Temperature 35 °F 26 °F 53 °F (1990)
Min Temperature 14 °F 10 °F -25 °F (1982)
Degree Days  
Heating Degree Days 40    
Moisture  
Dew Point 25 °F    
Average Humidity 91    
Maximum Humidity 100    
Minimum Humidity 76    
Precipitation  
Precipitation 0.00 in - - ()
Sea Level Pressure  
Sea Level Pressure 29.85 in    
Wind  
Wind Speed 15 mph (NNW)    
Max Wind Speed 26 mph    
Max Gust Speed 32 mph    
Visibility 4 miles    
Events Rain , Snow    
Averages and records for this station are not official NWS values.
T = Trace of Precipitation, MM = Missing Value Source: NWS Daily Summary

Daily Weather History Graph

Daily Weather History Graph

Search for Another Location

Airport or City:

Trip Planner

Search our weather history database for the weather conditions in past years. The results will help you decide how hot, cold, wet, or windy it might be!

Date:

Astronomy

Jan. 17, 2012 Rise Set
Actual Time 7:20 AM CST 4:52 PM CST
Civil Twilight 6:50 AM CST 5:22 PM CST
Nautical Twilight 6:15 AM CST 5:57 PM CST
Astronomical Twilight 5:42 AM CST 6:30 PM CST
Moon 1:39 AM CST (1/17) 11:45 AM CST (1/17)
Length of Visible Light 10h 32m
Length of Day
9h 31m
Waning Crescent, 35% of the Moon is Illuminated
Jan 17
Waning Crescent
Jan 23
New
Jan 30
First Quarter
Feb 7
Full
Feb 14
Last Quarter

Hourly Weather History & Observations

Time (CST) Temp. Windchill Dew Point Humidity Pressure Visibility Wind Dir Wind Speed Gust Speed Precip Events Conditions
12:15 AM 35.2 °F 27.6 °F 34.2 °F 96% 29.66 in 5.0 mi NE 10.4 mph - N/A   Overcast
12:55 AM 35.2 °F 28.1 °F 34.0 °F 95% 29.64 in 7.0 mi NNE 9.2 mph - N/A   Overcast
1:15 AM 35.1 °F 26.4 °F 33.8 °F 95% 29.63 in 7.0 mi NE 12.7 mph - N/A   Overcast
1:35 AM 34.9 °F 25.7 °F 34.0 °F 97% 29.63 in 4.0 mi NE 13.8 mph - N/A   Overcast
1:55 AM 34.5 °F 25.3 °F 33.8 °F 97% 29.63 in 2.0 mi NNE 13.8 mph 18.4 mph N/A   Overcast
2:15 AM 34.2 °F 25.2 °F 33.8 °F 99% 29.63 in 1.5 mi NNE 12.7 mph - N/A   Overcast
2:35 AM 33.8 °F 25.3 °F 33.8 °F 100% 29.64 in 1.2 mi NNE 11.5 mph - N/A   Overcast
2:55 AM 33.8 °F 24.8 °F 33.8 °F 100% 29.63 in 1.2 mi NNE 12.7 mph - N/A   Overcast
3:35 AM 33.4 °F 23.5 °F 33.3 °F 99% 29.60 in 1.2 mi NNE 15.0 mph 20.7 mph N/A   Light Drizzle
4:15 AM 33.3 °F 24.1 °F 33.1 °F 99% 29.61 in 1.2 mi NNE 12.7 mph 19.6 mph N/A   Overcast
4:35 AM 33.1 °F 22.6 °F 32.9 °F 99% 29.61 in 1.5 mi North 16.1 mph 20.7 mph N/A Rain Light Rain
4:55 AM 32.9 °F 24.1 °F 32.9 °F 100% 29.61 in 1.5 mi NNE 11.5 mph 18.4 mph N/A Rain Light Rain
5:15 AM 32.9 °F 24.1 °F 32.9 °F 100% 29.60 in 1.5 mi NNE 11.5 mph 18.4 mph N/A   Light Drizzle
5:35 AM 32.9 °F 23.2 °F 32.9 °F 100% 29.61 in 1.8 mi North 13.8 mph - N/A   Overcast
5:55 AM 32.9 °F 23.2 °F 32.5 °F 99% 29.64 in 1.5 mi North 13.8 mph - N/A   Overcast
6:15 AM 32.5 °F 23.7 °F 32.4 °F 99% 29.63 in 1.8 mi North 11.5 mph - N/A Rain Rain
6:35 AM 32.0 °F 21.6 °F 32.0 °F 100% 29.62 in 2.5 mi North 15.0 mph - N/A   Light Drizzle
6:55 AM 32.0 °F 21.6 °F 32.0 °F 100% 29.62 in 4.0 mi NNW 15.0 mph 20.7 mph N/A   Overcast
7:15 AM 32.0 °F 22.1 °F 31.6 °F 99% 29.65 in 4.0 mi NNW 13.8 mph - N/A   Overcast
7:35 AM 31.8 °F 21.8 °F 30.9 °F 96% 29.67 in 4.0 mi NNW 13.8 mph 23.0 mph N/A Snow Light Snow
7:55 AM 31.5 °F 19.4 °F 30.2 °F 95% 29.69 in 7.0 mi NNW 19.6 mph 26.5 mph N/A Rain Light Freezing Rain
8:15 AM 31.1 °F 18.9 °F 29.7 °F 94% 29.70 in 3.0 mi NNW 19.6 mph 25.3 mph N/A Rain Light Freezing Rain
8:35 AM 30.2 °F 17.4 °F 28.6 °F 94% 29.72 in 2.0 mi NNW 20.7 mph 27.6 mph N/A Rain Light Freezing Rain
8:55 AM 29.8 °F 16.6 °F 28.4 °F 94% 29.73 in 1.2 mi NNW 21.9 mph 32.2 mph N/A Snow Light Snow
9:15 AM 29.7 °F 16.7 °F 28.8 °F 96% 29.75 in 0.8 mi NNW 20.7 mph 25.3 mph N/A Snow Light Snow
9:35 AM 29.3 °F 15.3 °F 27.7 °F 94% 29.76 in 2.0 mi NNW 24.2 mph 31.1 mph N/A Snow Light Snow
10:15 AM 29.1 °F 15.7 °F 27.1 °F 92% 29.79 in 2.5 mi NNW 21.9 mph - N/A Snow Light Snow
10:35 AM 29.1 °F 15.7 °F 26.6 °F 90% 29.81 in 5.0 mi North 21.9 mph 25.3 mph N/A Snow Light Snow
10:55 AM 29.1 °F 14.5 °F 26.2 °F 89% 29.81 in 5.0 mi NNW 26.5 mph 32.2 mph N/A Snow Light Snow
11:15 AM 28.9 °F 15.8 °F 25.9 °F 88% 29.84 in 5.0 mi NNW 20.7 mph 29.9 mph N/A Snow Light Snow
11:35 AM 28.8 °F 17.0 °F 25.3 °F 87% 29.86 in 5.0 mi NNW 16.1 mph 24.2 mph N/A Snow Light Snow
12:15 PM 28.4 °F 16.2 °F 25.7 °F 90% 29.87 in 4.0 mi NW 17.3 mph 25.3 mph N/A Snow Light Snow
12:35 PM 28.6 °F 16.4 °F 25.7 °F 89% 29.88 in 2.0 mi NW 17.3 mph 25.3 mph N/A Snow Light Snow
12:55 PM 28.4 °F 16.6 °F 25.5 °F 89% 29.89 in 3.0 mi NW 16.1 mph 24.2 mph N/A Snow Light Snow
1:35 PM 27.9 °F 15.1 °F 24.8 °F 88% 29.90 in 2.0 mi WNW 18.4 mph - N/A Snow Light Snow
1:55 PM 27.3 °F 15.2 °F 24.1 °F 88% 29.91 in 3.0 mi NW 16.1 mph 19.6 mph N/A Snow Light Snow
2:15 PM 26.8 °F 14.1 °F 23.5 °F 88% 29.94 in 3.0 mi WNW 17.3 mph 25.3 mph N/A Snow Light Snow
2:35 PM 26.4 °F 12.5 °F 23.2 °F 88% 29.96 in 3.0 mi WNW 20.7 mph 24.2 mph N/A   Overcast
2:55 PM 25.5 °F 11.3 °F 22.6 °F 89% 29.97 in 2.5 mi WNW 20.7 mph 26.5 mph N/A Snow Light Snow
3:15 PM 24.8 °F 10.3 °F 22.1 °F 89% 29.99 in 1.5 mi WNW 20.7 mph 27.6 mph N/A Snow Light Snow
3:55 PM 23.7 °F 8.5 °F 21.0 °F 89% 30.04 in 1.8 mi WNW 21.9 mph 32.2 mph N/A Snow Light Snow
4:15 PM 23.4 °F 8.8 °F 21.0 °F 91% 30.05 in 2.5 mi WNW 19.6 mph 26.5 mph N/A Snow Light Snow
4:35 PM 22.8 °F 7.4 °F 19.0 °F 85% 30.07 in 7.0 mi WNW 21.9 mph 26.5 mph N/A   Overcast
4:55 PM 22.1 °F 8.0 °F 19.2 °F 89% 30.08 in 4.0 mi WNW 17.3 mph 25.3 mph N/A   Overcast
5:15 PM 21.2 °F 8.9 °F 17.6 °F 86% 30.09 in 7.0 mi NW 12.7 mph 26.5 mph N/A   Overcast
5:35 PM 21.2 °F 7.3 °F 17.8 °F 87% 30.11 in 7.0 mi WNW 16.1 mph 21.9 mph N/A   Mostly Cloudy
5:55 PM 20.1 °F 6.9 °F 16.7 °F 87% 30.12 in 10.0 mi WNW 13.8 mph 23.0 mph N/A   Scattered Clouds
6:15 PM 19.4 °F 5.0 °F 15.4 °F 85% 30.13 in 10.0 mi WNW 16.1 mph - N/A   Clear
6:35 PM 18.9 °F 3.8 °F 14.5 °F 83% 30.15 in 10.0 mi WNW 17.3 mph 20.7 mph N/A   Clear
6:55 PM 18.3 °F 3.6 °F 14.0 °F 83% 30.17 in 10.0 mi WNW 16.1 mph - N/A   Clear
7:15 PM 17.6 °F 4.3 °F 13.3 °F 83% 30.18 in 10.0 mi WNW 12.7 mph - N/A   Clear
7:35 PM 17.2 °F 2.7 °F 12.7 °F 83% 30.19 in 10.0 mi WNW 15.0 mph - N/A   Clear
8:15 PM 16.5 °F 1.8 °F 10.9 °F 79% 30.21 in 10.0 mi WNW 15.0 mph 20.7 mph N/A   Clear
8:35 PM 16.2 °F 1.9 °F 9.9 °F 76% 30.21 in 10.0 mi WNW 13.8 mph 20.7 mph N/A   Clear
8:55 PM 15.4 °F 2.3 °F 9.5 °F 77% 30.22 in 10.0 mi WNW 11.5 mph - N/A   Clear
9:15 PM 14.9 °F 2.3 °F 8.6 °F 76% 30.22 in 10.0 mi NW 10.4 mph 19.6 mph N/A   Clear
9:35 PM 14.2 °F 0.0 °F 8.1 °F 77% 30.23 in 10.0 mi NW 12.7 mph 16.1 mph N/A   Clear
9:55 PM 13.8 °F 1.8 °F 7.5 °F 76% 30.24 in 10.0 mi NW 9.2 mph - N/A   Clear
10:15 PM 13.1 °F 0.1 °F 7.2 °F 77% 30.25 in 10.0 mi NW 10.4 mph - N/A   Clear
10:35 PM 12.9 °F 0.7 °F 6.8 °F 77% 30.25 in 10.0 mi WNW 9.2 mph - N/A   Clear
10:55 PM 12.6 °F 1.1 °F 6.8 °F 78% 30.26 in 10.0 mi WNW 8.1 mph - N/A   Clear
11:15 PM 12.0 °F -0.4 °F 6.6 °F 79% 30.26 in 10.0 mi WNW 9.2 mph - N/A   Clear
11:35 PM 11.7 °F -2.5 °F 5.9 °F 78% 30.27 in 10.0 mi WNW 11.5 mph - N/A   Clear
11:55 PM 11.1 °F -2.4 °F 5.9 °F 80% 30.27 in 10.0 mi WNW 10.4 mph - N/A   Clear